Regional Weather Roundup
Issued by NWS State College, PA

Home | Current Version | Previous Version | Graphics & Text | Print | Product List | Glossary Off
Versions: 1 2 3 4 5 6 7 8 9 10 11 12 13 14 15 16 17 18 19 20 21 22 23 24 25 26 27 28 29 30 31 32 33 34 35 36 37 38 39 40 41 42 43 44 45 46 47 48 49 50

000
ASUS41 KCTP 181510
RWRCTP

REGIONAL WEATHER ROUNDUP
NATIONAL WEATHER SERVICE STATE COLLEGE PA
1100 AM EDT FRI AUG 18 2017

Note: "fair" indicates few or no clouds below 12,000 feet with no
significant weather and/or obstructions to visibility.

* = STATION THAT DOES NOT REPORT PRECIPITATION /E.G. RAIN...SNOW...ETC/
    THUNDER OR FOG.

PAZ002>004-007>009-013>016-020>023-029>032-181600-
WESTERN PENNSYLVANIA

CITY           SKY/WX    TMP DP  RH WIND       PRES   REMARKS
ERIE           CLOUDY    80  68  66 W10       29.78S
MEADVILLE      MOSUNNY   77  69  76 SW10      29.84S
FRANKLIN*      CLOUDY    75  66  73 SW9G17    29.85F
NEW CASTLE     CLOUDY    79  71  76 SW9       29.84F
BEAVER COUNTY  PTSUNNY   79  68  69 W9        29.86S
BUTLER*        CLOUDY    75  72  88 S7        29.86F
PITTSBURGH INT PTSUNNY   77  73  87 SW5       29.86R
PITTSBURGH     CLOUDY    74  70  87 W7        29.86S
INDIANA*       CLOUDY    72  72 100 W5        29.90S FOG
LATROBE        LGT RAIN  73  73 100 SW9       29.87S VSB 1
WASHINGTON CO* CLOUDY    75  70  83 W3        29.88R
$$

PAZ004>006-010>012-017>019-024>028-033>037-041-042-045-046-049>053-181600-
CENTRAL PENNSYLVANIA

CITY           SKY/WX    TMP DP  RH WIND       PRES   REMARKS
BRADFORD       PTSUNNY   75  68  78 W6G17     29.87S
DUBOIS         CLOUDY    72  68  87 SW6       29.87F
CLEARFIELD     LGT RAIN  73  72  96 S6        29.88S
JOHNSTOWN      HVY RAIN  71  69  93 SW8       29.91S FOG
ALTOONA        CLOUDY    73  71  93 S7        29.89S
STATE COLLEGE  RAIN      73  72  94 SW6       29.87R
WILLIAMSPORT   LGT RAIN  78  75  90 SW5       29.81S
SELINSGROVE    PTSUNNY   80  75  84 S6        29.83F
FT INDIANTOWN  PTSUNNY   82  77  86 S7        29.85S
CAPITAL CITY   PTSUNNY   86  74  67 S6        29.84F
HARRISBURG     CLOUDY    85  75  72 S5        29.83F
YORK           MOSUNNY   84  76  76 VRB6      29.86F
$$

PAZ038>040-043-044-047-048-054-055-060>062-067>071-181600-
EASTERN PENNSYLVANIA

CITY           SKY/WX    TMP DP  RH WIND       PRES   REMARKS
SCRANTON       CLOUDY    78  73  84 VRB3      29.85F
MOUNT POCONO   CLOUDY    71  71 100 S8        29.92S
ALLENTOWN      CLOUDY    79  72  79 S8        29.87S
QUAKERTOWN*    CLOUDY    77  73  88 SW5       29.89S
READING        CLOUDY    81  76  84 S6        29.85F
LANCASTER      CLOUDY    82  77  84 S8        29.86F
COATESVILLE    CLOUDY    79  75  89 VRB5      29.90S
POTTSTOWN      CLOUDY    77  75  93 S6        29.89S FOG
BLUE BELL      CLOUDY    75  75 100 CALM      29.89F
DOYLESTOWN     CLOUDY    76  75  97 VRB7      29.88S
WILLOW GROVE   NOT AVBL
NORTH PHILA    CLOUDY    81  76  84 SW6       29.89S
PHILADELPHIA   CLOUDY    80  75  84 S8        29.87F
$$



USA.gov is the U.S. government's official web portal to all federal, state and local government web resources and services.